"Pseudo-MPEC" for 16A2801

Created 2021 Jun 13 15:07:02 UT using Find_Orb

Click here for an explanation of pseudo-MPECs

 
 Astrometry: 
     16A2801 KC2021 06 11h24D?CqM1A]TMm$_oMcL+AstrometryX*DsNredacted;w?xa82+W94
     16A2801 KC2021 06 11W0V*uxBO%i-d^ZMdf_nd3vk0oqb0cupA_L%ZJ!/)jpm(PulpZ:[GW94
     16A2801 KC2021 06 117X`Q@q:og[.m;hQ!aGoiRj\H$clickP]LAchere^(:XS/N@D\3_%W94
     16A2801 |C2021 06 12+V0-=XV,0B2Xsp*nYBPN!)7)for#[ekuDvQU]ngmTwmwcJYdrm-I807
     16A2801 |C2021 06 12u.R27VmVGB!ws05Aexplanationw(vNPM7VQKtI'r95%%5L7\o83807
     16A2801 |C2021 06 12h0y+`M53Edi?g-!:j?%qT,.j!WCVZSU?m\TSDjL2QMLRE1iy=QCr807

Station data:
(807) Cerro Tololo Observatory, La Serena  (S30.169136 W70.805900)  Chile.
(W94) AMACS1, San Pedro de Atacama  (S22.953076 W68.179810)  Chile.

Orbital elements:  16A2801
   Perihelion 2021 Jun 11.546363 TT = 13:06:45 (JD 2459377.046363)
Epoch 2021 Jun 12.0 TT = JDT 2459377.5   Earth MOID: 0.5351   AutoNEOCP
M   0.18466510                      (J2000 ecliptic)
n   0.40707685     Peri.  316.47253
a   1.80309431     Node   304.69803
e   0.1592376      Incl.   19.06884
P   2.42/884.34d   H   18.6     G   0.15   q 1.51597375  Q 2.09021487
From 6 observations 2021 June 11-12 (26.5 hr); mean residual 1".19
Residuals in arcseconds: 
210611 W94  3.1-  1.3+    210611 W94  1.6+  .51-    210612 807  .36+  .08+    
210611 W94  1.5+  .78-    210612 807  .19-  .06-    210612 807  .20-  .01-    

Ephemerides (geocentric):
Date (UTC) HH   RA              Dec         delta   r     elong  mag
---- -- -- --  -------------   -----------  ------ ------ -----  ---
2021 06 13 15  17 41 31.386   -59 06 07.86  .57169 1.5160 144.0 19.4
2021 06 13 16  17 41 26.994   -59 05 20.34  .57161 1.5160 144.1 19.4
2021 06 13 17  17 41 22.602   -59 04 32.72  .57153 1.5160 144.1 19.4
2021 06 13 18  17 41 18.212   -59 03 45.01  .57145 1.5160 144.1 19.4
2021 06 13 19  17 41 13.824   -59 02 57.20  .57137 1.5160 144.1 19.4
2021 06 13 20  17 41 09.436   -59 02 09.29  .57129 1.5160 144.1 19.4
2021 06 13 21  17 41 05.050   -59 01 21.29  .57121 1.5160 144.1 19.4
2021 06 13 22  17 41 00.666   -59 00 33.19  .57113 1.5160 144.2 19.4
2021 06 13 23  17 40 56.283   -58 59 44.99  .57105 1.5160 144.2 19.4
2021 06 14 00  17 40 51.902   -58 58 56.70  .57097 1.5160 144.2 19.4
2021 06 14 01  17 40 47.522   -58 58 08.31  .57089 1.5160 144.2 19.4
2021 06 14 02  17 40 43.143   -58 57 19.83  .57081 1.5160 144.2 19.4
2021 06 14 03  17 40 38.766   -58 56 31.25  .57074 1.5160 144.3 19.4
2021 06 14 04  17 40 34.391   -58 55 42.57  .57066 1.5160 144.3 19.4
2021 06 14 05  17 40 30.017   -58 54 53.80  .57058 1.5160 144.3 19.4
2021 06 14 06  17 40 25.645   -58 54 04.93  .57050 1.5160 144.3 19.4
2021 06 14 07  17 40 21.275   -58 53 15.96  .57043 1.5161 144.3 19.4
2021 06 14 08  17 40 16.906   -58 52 26.90  .57035 1.5161 144.3 19.4
2021 06 14 09  17 40 12.539   -58 51 37.74  .57027 1.5161 144.4 19.4
2021 06 14 10  17 40 08.174   -58 50 48.49  .57020 1.5161 144.4 19.4
2021 06 14 11  17 40 03.811   -58 49 59.14  .57012 1.5161 144.4 19.4
2021 06 14 12  17 39 59.449   -58 49 09.70  .57005 1.5161 144.4 19.4
2021 06 14 13  17 39 55.089   -58 48 20.16  .56997 1.5161 144.4 19.4
2021 06 14 14  17 39 50.731   -58 47 30.52  .56989 1.5161 144.5 19.4
2021 06 14 15  17 39 46.375   -58 46 40.79  .56982 1.5161 144.5 19.4
2021 06 14 16  17 39 42.020   -58 45 50.96  .56974 1.5161 144.5 19.4
2021 06 14 17  17 39 37.668   -58 45 01.04  .56967 1.5161 144.5 19.4
2021 06 14 18  17 39 33.318   -58 44 11.02  .56960 1.5161 144.5 19.4
2021 06 14 19  17 39 28.969   -58 43 20.90  .56952 1.5161 144.5 19.4
2021 06 14 20  17 39 24.622   -58 42 30.69  .56945 1.5161 144.6 19.4
2021 06 14 21  17 39 20.278   -58 41 40.39  .56937 1.5161 144.6 19.4
2021 06 14 22  17 39 15.935   -58 40 49.98  .56930 1.5161 144.6 19.4
2021 06 14 23  17 39 11.595   -58 39 59.49  .56923 1.5161 144.6 19.4
2021 06 15 00  17 39 07.256   -58 39 08.89  .56916 1.5161 144.6 19.4
2021 06 15 01  17 39 02.920   -58 38 18.21  .56908 1.5161 144.6 19.4
2021 06 15 02  17 38 58.586   -58 37 27.42  .56901 1.5161 144.7 19.4
2021 06 15 03  17 38 54.254   -58 36 36.55  .56894 1.5161 144.7 19.4
2021 06 15 04  17 38 49.924   -58 35 45.57  .56887 1.5161 144.7 19.4
2021 06 15 05  17 38 45.596   -58 34 54.50  .56879 1.5161 144.7 19.4
2021 06 15 06  17 38 41.271   -58 34 03.34  .56872 1.5161 144.7 19.4
2021 06 15 07  17 38 36.948   -58 33 12.08  .56865 1.5161 144.7 19.4
2021 06 15 08  17 38 32.627   -58 32 20.73  .56858 1.5161 144.8 19.4
2021 06 15 09  17 38 28.308   -58 31 29.28  .56851 1.5161 144.8 19.4
2021 06 15 10  17 38 23.992   -58 30 37.74  .56844 1.5161 144.8 19.4
2021 06 15 11  17 38 19.678   -58 29 46.10  .56837 1.5161 144.8 19.4
2021 06 15 12  17 38 15.366   -58 28 54.37  .56830 1.5161 144.8 19.4
2021 06 15 13  17 38 11.057   -58 28 02.54  .56823 1.5161 144.8 19.4
2021 06 15 14  17 38 06.750   -58 27 10.62  .56816 1.5161 144.9 19.4